Location: Andrest
(43.3200°N, 0.0641°E)
Time: 14:46:03
(UTC+00:00)

Cosmos 1515 Rocket - Pass Details

Date: 01 December 2020
Orbit: 605 x 631 km, 82.5° (Epoch: 23 January)

Event Time Altitude Azimuth Distance (km) Brightness Sun altitude
Rises 17:13:08 0° 164° (SSE) 2,867 7.1 -8.7°
Reaches altitude 10° 17:15:28 10° 155° (SSE) 1,972 6.1 -9.1°
Maximum altitude 17:19:24 34° 91° (E) 1,033 4.2 -9.8°
Drops below altitude 10° 17:23:24 10° 27° (NNE) 2,001 5.7 -10.4°
Enters shadow 17:25:13 - 19° (NNE) 2,691 6.5 -10.7°
